| time (UTC) | temp C | wind direction | speed KPH | gust KPH | rain 1hr cm | rain 24hr cm | rain mn cm | humidity % | barometer mb |
| 20260906203506 | 34 | 169 | 6.4 | 24.1 | 0.00 | 0.00 | 0.00 | 43 | 1005.6 |
| 20260906203006 | 34 | 171 | 9.7 | 24.1 | 0.00 | 0.00 | 0.00 | 42 | 1005.6 |
| 20260906202506 | 34 | 162 | 11.3 | 24.1 | 0.00 | 0.00 | 0.00 | 44 | 1005.6 |
| 20260906202006 | 34 | 167 | 9.7 | 19.3 | 0.00 | 0.00 | 0.00 | 43 | 1005.6 |
| 20260906201506 | 34 | 158 | 8.0 | 48.3 | 0.00 | 0.00 | 0.00 | 45 | 1005.6 |
| 20260906201006 | 33 | 140 | 17.7 | 48.3 | 0.00 | 0.00 | 0.00 | 45 | 1005.6 |
| 20260906200506 | 33 | 162 | 8.0 | 24.1 | 0.00 | 0.00 | 0.00 | 46 | 1005.6 |
| 20260906200006 | 33 | 140 | 11.3 | 27.4 | 0.00 | 0.00 | 0.00 | 47 | 1005.6 |
| 20260906195506 | 33 | 146 | 12.9 | 35.4 | 0.00 | 0.00 | 0.00 | 47 | 1005.6 |
| 20260906195005 | 33 | 147 | 11.3 | 35.4 | 0.00 | 0.00 | 0.00 | 47 | 1005.6 |
| 20260906194506 | 33 | 151 | 14.5 | 35.4 | 0.00 | 0.00 | 0.00 | 48 | 1005.6 |
| 20260906194006 | 32 | 145 | 9.7 | 35.4 | 0.00 | 0.00 | 0.00 | 49 | 1005.6 |
| 20260906193506 | 32 | 140 | 16.1 | 38.6 | 0.00 | 0.00 | 0.00 | 51 | 1005.6 |
| 20260906193005 | 32 | 138 | 17.7 | 41.8 | 0.00 | 0.00 | 0.00 | 49 | 1005.6 |
| 20260906192506 | 32 | 143 | 14.5 | 41.8 | 0.00 | 0.00 | 0.00 | 50 | 1005.6 |
| 20260906192006 | 32 | 139 | 16.1 | 37.0 | 0.00 | 0.00 | 0.00 | 51 | 1005.6 |
| 20260906191506 | 32 | 147 | 9.7 | 40.2 | 0.00 | 0.00 | 0.00 | 53 | 1005.6 |
| 20260906191006 | 32 | 143 | 16.1 | 40.2 | 0.00 | 0.00 | 0.00 | 53 | 1005.6 |
| 20260906190506 | 31 | 128 | 17.7 | 40.2 | 0.00 | 0.00 | 0.00 | 52 | 1005.6 |
| 20260906190027 | 31 | 136 | 16.1 | 35.4 | 0.00 | 0.00 | 0.00 | 56 | 1005.6 |
| 20260906185506 | 31 | 127 | 17.7 | 37.0 | 0.00 | 0.00 | 0.00 | 57 | 1005.6 |
| 20260906185006 | 30 | 129 | 14.5 | 37.0 | 0.00 | 0.00 | 0.00 | 59 | 1005.6 |
| 20260906184506 | 30 | 129 | 14.5 | 30.6 | 0.00 | 0.00 | 0.00 | 60 | 1005.6 |
| 20260906184006 | 30 | 132 | 12.9 | 38.6 | 0.00 | 0.00 | 0.00 | 61 | 1005.6 |
| 20260906183506 | 30 | 124 | 12.9 | 38.6 | 0.00 | 0.00 | 0.00 | 63 | 1005.6 |
| 20260906183006 | 29 | 118 | 14.5 | 33.8 | 0.00 | 0.00 | 0.00 | 63 | 1005.6 |
| 20260906182506 | 29 | 117 | 14.5 | 33.8 | 0.00 | 0.00 | 0.00 | 63 | 1005.6 |
| 20260906182027 | 29 | 126 | 9.7 | 30.6 | 0.00 | 0.00 | 0.00 | 65 | 1005.6 |
| 20260906181505 | 28 | 127 | 11.3 | 30.6 | 0.00 | 0.00 | 0.00 | 67 | 1005.6 |
| 20260906180506 | 28 | 116 | 8.0 | 41.8 | 0.00 | 0.00 | 0.00 | 67 | 1005.6 |
| 20260906180005 | 28 | 121 | 12.9 | 30.6 | 0.00 | 0.00 | 0.00 | 66 | 1005.6 |
| 20260906175506 | 28 | 108 | 14.5 | 32.2 | 0.00 | 0.00 | 0.00 | 65 | 1005.6 |
| 20260906175006 | 28 | 122 | 14.5 | 35.4 | 0.00 | 0.00 | 0.00 | 68 | 1005.6 |
| 20260906174506 | 27 | 122 | 11.3 | 35.4 | 0.00 | 0.00 | 0.00 | 66 | 1005.6 |
| 20260906174006 | 27 | 113 | 14.5 | 32.2 | 0.00 | 0.00 | 0.00 | 66 | 1005.6 |
| 20260906173526 | 27 | 126 | 9.7 | 32.2 | 0.00 | 0.00 | 0.00 | 68 | 1005.6 |
| 20260906173006 | 27 | 125 | 9.7 | 22.5 | 0.00 | 0.00 | 0.00 | 70 | 1005.6 |
| 20260906172505 | 26 | 115 | 8.0 | 35.4 | 0.00 | 0.00 | 0.00 | 72 | 1005.6 |
| 20260906172006 | 26 | 109 | 9.7 | 35.4 | 0.00 | 0.00 | 0.00 | 72 | 1005.6 |
| 20260906171505 | 26 | 119 | 11.3 | 27.4 | 0.00 | 0.00 | 0.00 | 71 | 1005.6 |
| 20260906171006 | 26 | 124 | 6.4 | 20.9 | 0.00 | 0.00 | 0.00 | 72 | 1005.6 |
| 20260906170505 | 27 | 107 | 8.0 | 20.9 | 0.00 | 0.00 | 0.00 | 71 | 1005.6 |
| 20260906170006 | 26 | 137 | 8.0 | 17.7 | 0.00 | 0.00 | 0.00 | 73 | 1005.6 |
| 20260906165505 | 26 | 112 | 9.7 | 17.7 | 0.00 | 0.00 | 0.00 | 74 | 1005.6 |
| 20260906165006 | 25 | 103 | 6.4 | 14.5 | 0.00 | 0.00 | 0.00 | 74 | 1005.6 |
| 20260906164527 | 25 | 108 | 4.8 | 14.5 | 0.00 | 0.00 | 0.00 | 75 | 1005.6 |
| 20260906164006 | 25 | 112 | 4.8 | 20.9 | 0.00 | 0.00 | 0.00 | 75 | 1005.6 |
| 20260906163506 | 25 | 140 | 6.4 | 20.9 | 0.00 | 0.00 | 0.00 | 74 | 1005.6 |
| 20260906163006 | 25 | 110 | 9.7 | 20.9 | 0.00 | 0.00 | 0.00 | 73 | 1005.6 |
| 20260906162506 | 26 | 154 | 6.4 | 29.0 | 0.00 | 0.00 | 0.00 | 72 | 1005.6 |
| 20260906162006 | 26 | 125 | 9.7 | 33.8 | 0.00 | 0.00 | 0.00 | 70 | 1005.6 |
| 20260906161506 | 26 | 127 | 12.9 | 33.8 | 0.00 | 0.00 | 0.00 | 69 | 1005.6 |
| 20260906161006 | 26 | 126 | 9.7 | 25.7 | 0.00 | 0.00 | 0.00 | 69 | 1005.6 |
| 20260906160506 | 26 | 124 | 9.7 | 30.6 | 0.00 | 0.00 | 0.00 | 71 | 1005.6 |
| 20260906160006 | 26 | 127 | 14.5 | 30.6 | 0.00 | 0.00 | 0.00 | 72 | 1005.6 |
| 20260906155527 | 25 | 112 | 4.8 | 19.3 | 0.00 | 0.00 | 0.00 | 76 | 1005.6 |
| 20260906155006 | 25 | 161 | 6.4 | 24.1 | 0.00 | 0.00 | 0.00 | 75 | 1005.6 |
| 20260906154506 | 25 | 170 | 6.4 | 25.7 | 0.00 | 0.00 | 0.00 | 75 | 1005.6 |
| 20260906154006 | 25 | 143 | 9.7 | 27.4 | 0.00 | 0.00 | 0.00 | 75 | 1005.6 |
| 20260906153005 | 25 | 104 | 8.0 | 25.7 | 0.00 | 0.00 | 0.00 | 77 | 1005.6 |
| 20260906152506 | 24 | 129 | 8.0 | 20.9 | 0.00 | 0.00 | 0.00 | 80 | 1005.6 |
| 20260906152027 | 23 | 133 | 9.7 | 19.3 | 0.00 | 0.00 | 0.00 | 81 | 1005.6 |
| 20260906151506 | 23 | 159 | 4.8 | 16.1 | 0.00 | 0.00 | 0.00 | 81 | 1005.6 |
| 20260906151006 | 23 | 151 | 6.4 | 16.1 | 0.00 | 0.00 | 0.00 | 82 | 1005.6 |
| 20260906150526 | 23 | 122 | 6.4 | 22.5 | 0.00 | 0.00 | 0.00 | 82 | 1005.6 |
| 20260906145527 | 23 | 112 | 9.7 | 20.9 | 0.00 | 0.00 | 0.00 | 82 | 1005.6 |
| 20260906145027 | 22 | 64 | 8.0 | 16.1 | 0.00 | 0.00 | 0.00 | 82 | 1005.6 |
| 20260906144506 | 22 | 103 | 6.4 | 16.1 | 0.00 | 0.00 | 0.00 | 82 | 1005.6 |
| 20260906144006 | 22 | 92 | 6.4 | 20.9 | 0.00 | 0.00 | 0.00 | 82 | 1005.6 |
| 20260906143506 | 22 | 121 | 8.0 | 20.9 | 0.00 | 0.00 | 0.00 | 82 | 1005.6 |
| 20260906143006 | 22 | 107 | 6.4 | 19.3 | 0.00 | 0.00 | 0.00 | 82 | 1005.6 |
| 20260906142506 | 22 | 104 | 8.0 | 17.7 | 0.00 | 0.00 | 0.00 | 83 | 1005.6 |
| 20260906142006 | 22 | 96 | 4.8 | 16.1 | 0.00 | 0.00 | 0.00 | 82 | 1005.6 |
| 20260906141505 | 22 | 101 | 6.4 | 22.5 | 0.00 | 0.00 | 0.00 | 81 | 1005.6 |
| 20260906140505 | 22 | 105 | 4.8 | 12.9 | 0.00 | 0.00 | 0.00 | 82 | 1005.6 |
| 20260906140006 | 22 | 158 | 4.8 | 12.9 | 0.00 | 0.00 | 0.00 | 81 | 1005.6 |
| 20260906135505 | 22 | 55 | 4.8 | 12.9 | 0.00 | 0.00 | 0.00 | 82 | 1005.6 |
| 20260906135006 | 22 | 61 | 4.8 | 12.9 | 0.00 | 0.00 | 0.00 | 82 | 1005.6 |
| 20260906134505 | 22 | 86 | 3.2 | 14.5 | 0.00 | 0.00 | 0.00 | 82 | 1005.6 |
| 20260906134006 | 22 | 85 | 6.4 | 14.5 | 0.00 | 0.00 | 0.00 | 82 | 1005.6 |
| 20260906133505 | 22 | 76 | 6.4 | 14.5 | 0.00 | 0.00 | 0.00 | 81 | 1005.6 |
| 20260906133006 | 22 | 77 | 4.8 | 16.1 | 0.00 | 0.00 | 0.00 | 81 | 1005.6 |
| 20260906132506 | 22 | 39 | 4.8 | 22.5 | 0.00 | 0.00 | 0.00 | 81 | 1005.6 |
| 20260906132027 | 22 | 57 | 11.3 | 22.5 | 0.00 | 0.00 | 0.00 | 80 | 1005.6 |
| 20260906131506 | 23 | 58 | 8.0 | 17.7 | 0.00 | 0.00 | 0.00 | 79 | 1005.6 |
| 20260906131006 | 23 | 54 | 8.0 | 17.7 | 0.00 | 0.00 | 0.00 | 78 | 1005.6 |
| 20260906130506 | 23 | 60 | 8.0 | 14.5 | 0.00 | 0.00 | 0.00 | 77 | 1005.6 |
| 20260906130006 | 23 | 76 | 6.4 | 14.5 | 0.00 | 0.00 | 0.00 | 77 | 1005.6 |
| 20260906125506 | 23 | 50 | 6.4 | 14.5 | 0.00 | 0.00 | 0.00 | 78 | 1005.6 |
| 20260906125006 | 23 | 42 | 8.0 | 14.5 | 0.00 | 0.00 | 0.00 | 78 | 1005.6 |
| 20260906124506 | 22 | 53 | 8.0 | 16.1 | 0.00 | 0.00 | 0.00 | 79 | 1005.6 |
| 20260906124006 | 22 | 60 | 6.4 | 17.7 | 0.00 | 0.00 | 0.00 | 80 | 1005.6 |
| 20260906123527 | 22 | 52 | 9.7 | 17.7 | 0.00 | 0.00 | 0.00 | 81 | 1005.6 |
| 20260906123005 | 22 | 46 | 11.3 | 17.7 | 0.00 | 0.00 | 0.00 | 81 | 1005.6 |
| 20260906122506 | 22 | 39 | 9.7 | 16.1 | 0.00 | 0.00 | 0.00 | 81 | 1005.6 |
| 20260906122005 | 22 | 27 | 8.0 | 12.9 | 0.00 | 0.00 | 0.00 | 81 | 1005.6 |
| 20260906121506 | 22 | 340 | 3.2 | 8.0 | 0.00 | 0.00 | 0.00 | 81 | 1005.6 |
| 20260906121005 | 23 | 359 | 1.6 | 6.4 | 0.00 | 0.00 | 0.00 | 81 | 1005.6 |
| 20260906120506 | 23 | 31 | 3.2 | 4.8 | 0.00 | 0.00 | 0.00 | 80 | 1005.6 |
| 20260906120026 | 23 | 32 | 1.6 | 3.2 | 0.00 | 0.00 | 0.00 | 79 | 1005.6 |
| 20260906115506 | 23 | 32 | 0.0 | 3.2 | 0.00 | 0.00 | 0.00 | 79 | 1005.6 |
| 20260906115005 | 23 | 98 | 0.0 | 3.2 | 0.00 | 0.00 | 0.00 | 77 | 1005.6 |
| 20260906114506 | 23 | 56 | 1.6 | 6.4 | 0.00 | 0.00 | 0.00 | 77 | 1005.6 |
| 20260906114006 | 23 | 69 | 1.6 | 8.0 | 0.00 | 0.00 | 0.00 | 76 | 1005.6 |
| 20260906113506 | 23 | 89 | 3.2 | 8.0 | 0.00 | 0.00 | 0.00 | 75 | 1005.6 |
| 20260906113006 | 23 | 89 | 3.2 | 8.0 | 0.00 | 0.00 | 0.00 | 75 | 1005.6 |
| 20260906112506 | 23 | 257 | 0.0 | 1.6 | 0.00 | 0.00 | 0.00 | 75 | 1005.6 |
| 20260906112006 | 23 | 256 | 0.0 | 1.6 | 0.00 | 0.00 | 0.00 | 75 | 1005.6 |
| 20260906111527 | 23 | 257 | 0.0 | 6.4 | 0.00 | 0.00 | 0.00 | 75 | 1005.6 |
| 20260906111006 | 23 | 256 | 0.0 | 6.4 | 0.00 | 0.00 | 0.00 | 74 | 1005.6 |
| 20260906110505 | 23 | 216 | 3.2 | 4.8 | 0.00 | 0.00 | 0.00 | 73 | 1005.6 |
| 20260906110006 | 23 | 208 | 0.0 | 3.2 | 0.00 | 0.00 | 0.00 | 72 | 1005.6 |
| 20260906105505 | 24 | 208 | 0.0 | 6.4 | 0.00 | 0.00 | 0.00 | 72 | 1005.6 |
| 20260906105006 | 24 | 208 | 1.6 | 6.4 | 0.00 | 0.00 | 0.00 | 71 | 1005.6 |
| 20260906104506 | 24 | 218 | 1.6 | 4.8 | 0.00 | 0.00 | 0.00 | 71 | 1005.6 |
| 20260906104005 | 24 | 218 | 1.6 | 8.0 | 0.00 | 0.00 | 0.00 | 71 | 1005.6 |
| 20260906103506 | 23 | 209 | 1.6 | 8.0 | 0.00 | 0.00 | 0.00 | 71 | 1005.6 |
| 20260906103005 | 23 | 208 | 3.2 | 6.4 | 0.00 | 0.00 | 0.00 | 72 | 1005.6 |
| 20260906102506 | 23 | 208 | 0.0 | 8.0 | 0.00 | 0.00 | 0.00 | 73 | 1005.6 |
| 20260906102006 | 23 | 208 | 1.6 | 8.0 | 0.00 | 0.00 | 0.00 | 73 | 1005.6 |
| 20260906101506 | 24 | 231 | 1.6 | 6.4 | 0.00 | 0.00 | 0.00 | 72 | 1005.6 |
| 20260906101027 | 24 | 207 | 1.6 | 8.0 | 0.00 | 0.00 | 0.00 | 72 | 1005.6 |
| 20260906100505 | 24 | 170 | 0.0 | 8.0 | 0.00 | 0.00 | 0.00 | 72 | 1005.6 |
| 20260906100006 | 24 | 228 | 1.6 | 6.4 | 0.00 | 0.00 | 0.00 | 71 | 1005.6 |
| 20260906095506 | 24 | 190 | 1.6 | 6.4 | 0.00 | 0.00 | 0.00 | 71 | 1005.6 |
| 20260906095006 | 24 | 211 | 1.6 | 6.4 | 0.00 | 0.00 | 0.00 | 72 | 1005.6 |
| 20260906094506 | 24 | 176 | 1.6 | 4.8 | 0.00 | 0.00 | 0.00 | 72 | 1005.6 |
| 20260906094006 | 24 | 170 | 0.0 | 4.8 | 0.00 | 0.00 | 0.00 | 72 | 1005.6 |
| 20260906093506 | 24 | 228 | 0.0 | 6.4 | 0.00 | 0.00 | 0.00 | 73 | 1005.6 |
| 20260906093006 | 24 | 168 | 1.6 | 6.4 | 0.00 | 0.00 | 0.00 | 73 | 1005.6 |
| 20260906092506 | 24 | 169 | 1.6 | 4.8 | 0.00 | 0.00 | 0.00 | 73 | 1005.6 |
| 20260906092005 | 24 | 165 | 0.0 | 4.8 | 0.00 | 0.00 | 0.00 | 73 | 1005.6 |
| 20260906091506 | 24 | 207 | 1.6 | 6.4 | 0.00 | 0.00 | 0.00 | 74 | 1005.6 |
| 20260906091005 | 23 | 218 | 1.6 | 6.4 | 0.00 | 0.00 | 0.00 | 74 | 1005.6 |
| 20260906090527 | 23 | 218 | 1.6 | 4.8 | 0.00 | 0.00 | 0.00 | 75 | 1005.6 |
| 20260906090027 | 23 | 226 | 0.0 | 3.2 | 0.00 | 0.00 | 0.00 | 74 | 1005.6 |
| 20260906085505 | 23 | 226 | 0.0 | 1.6 | 0.00 | 0.00 | 0.00 | 74 | 1005.6 |
| 20260906085048 | 23 | 226 | 0.0 | 1.6 | 0.00 | 0.00 | 0.00 | 74 | 1005.6 |
| 20260906084506 | 23 | 227 | 0.0 | 3.2 | 0.00 | 0.00 | 0.00 | 74 | 1005.6 |
| 20260906084005 | 23 | 226 | 0.0 | 3.2 | 0.00 | 0.00 | 0.00 | 73 | 1005.6 |
| 20260906083506 | 24 | 146 | 0.0 | 4.8 | 0.00 | 0.00 | 0.00 | 73 | 1005.6 |
| 20260906083006 | 24 | 144 | 1.6 | 4.8 | 0.00 | 0.00 | 0.00 | 72 | 1005.6 |
| 20260906082506 | 24 | 210 | 0.0 | 3.2 | 0.00 | 0.00 | 0.00 | 71 | 1005.6 |
| 20260906082006 | 24 | 176 | 0.0 | 3.2 | 0.00 | 0.00 | 0.00 | 71 | 1005.6 |
| 20260906081506 | 24 | 156 | 0.0 | 1.6 | 0.00 | 0.00 | 0.00 | 70 | 1005.6 |
| 20260906081006 | 24 | 156 | 0.0 | 1.6 | 0.00 | 0.00 | 0.00 | 70 | 1005.6 |
| 20260906080505 | 24 | 156 | 0.0 | 0.0 | 0.00 | 0.00 | 0.00 | 70 | 1005.6 |
| 20260906080006 | 24 | 156 | 0.0 | 1.6 | 0.00 | 0.00 | 0.00 | 70 | 1005.6 |
| 20260906075505 | 24 | 156 | 0.0 | 4.8 | 0.00 | 0.00 | 0.00 | 70 | 1005.6 |
| 20260906075006 | 24 | 156 | 0.0 | 4.8 | 0.00 | 0.00 | 0.00 | 70 | 1005.6 |
| 20260906074505 | 24 | 156 | 1.6 | 4.8 | 0.00 | 0.00 | 0.00 | 70 | 1005.6 |
| 20260906074006 | 24 | 156 | 0.0 | 3.2 | 0.00 | 0.00 | 0.00 | 70 | 1005.6 |
| 20260906073527 | 25 | 156 | 0.0 | 3.2 | 0.00 | 0.00 | 0.00 | 69 | 1005.6 |
| 20260906073027 | 25 | 156 | 0.0 | 4.8 | 0.00 | 0.00 | 0.00 | 69 | 1005.6 |
| 20260906072505 | 25 | 156 | 0.0 | 9.7 | 0.00 | 0.00 | 0.00 | 69 | 1005.6 |
| 20260906072006 | 25 | 153 | 4.8 | 9.7 | 0.00 | 0.00 | 0.00 | 69 | 1005.6 |
| 20260906071505 | 25 | 163 | 1.6 | 8.0 | 0.00 | 0.00 | 0.00 | 68 | 1005.6 |
| 20260906071006 | 25 | 136 | 3.2 | 8.0 | 0.00 | 0.00 | 0.00 | 68 | 1005.6 |
| 20260906070505 | 25 | 145 | 1.6 | 8.0 | 0.00 | 0.00 | 0.00 | 68 | 1005.6 |
| 20260906070027 | 25 | 155 | 1.6 | 9.7 | 0.00 | 0.00 | 0.00 | 68 | 1005.6 |
| 20260906065505 | 25 | 151 | 1.6 | 9.7 | 0.00 | 0.00 | 0.00 | 68 | 1005.6 |
| 20260906064506 | 25 | 169 | 3.2 | 8.0 | 0.00 | 0.00 | 0.00 | 68 | 1005.6 |
| 20260906064005 | 24 | 192 | 3.2 | 8.0 | 0.00 | 0.00 | 0.00 | 69 | 1005.6 |
| 20260906063506 | 24 | 156 | 3.2 | 6.4 | 0.00 | 0.00 | 0.00 | 69 | 1005.6 |
| 20260906063006 | 24 | 185 | 3.2 | 6.4 | 0.00 | 0.00 | 0.00 | 69 | 1005.6 |
| 20260906062505 | 24 | 157 | 1.6 | 4.8 | 0.00 | 0.00 | 0.00 | 69 | 1005.6 |
| 20260906062006 | 24 | 170 | 1.6 | 11.3 | 0.00 | 0.00 | 0.00 | 69 | 1005.6 |
| 20260906061505 | 24 | 170 | 1.6 | 11.3 | 0.00 | 0.00 | 0.00 | 69 | 1005.6 |
| 20260906061006 | 24 | 149 | 4.8 | 12.9 | 0.00 | 0.00 | 0.00 | 69 | 1005.6 |
| 20260906060505 | 24 | 136 | 6.4 | 12.9 | 0.00 | 0.00 | 0.00 | 69 | 1005.6 |
| 20260906060006 | 24 | 138 | 6.4 | 11.3 | 0.00 | 0.00 | 0.00 | 70 | 1005.6 |
| 20260906055505 | 24 | 143 | 6.4 | 11.3 | 0.00 | 0.00 | 0.00 | 70 | 1005.6 |
| 20260906055006 | 23 | 138 | 8.0 | 12.9 | 0.00 | 0.00 | 0.00 | 70 | 1005.6 |
| 20260906054505 | 23 | 140 | 4.8 | 12.9 | 0.00 | 0.00 | 0.00 | 70 | 1005.6 |
| 20260906054006 | 24 | 166 | 1.6 | 9.7 | 0.00 | 0.00 | 0.00 | 70 | 1005.6 |
| 20260906053505 | 24 | 137 | 1.6 | 9.7 | 0.00 | 0.00 | 0.00 | 70 | 1005.6 |
| 20260906053006 | 24 | 138 | 4.8 | 8.0 | 0.00 | 0.00 | 0.00 | 69 | 1005.6 |
| 20260906052526 | 24 | 130 | 3.2 | 6.4 | 0.00 | 0.00 | 0.00 | 69 | 1005.6 |
| 20260906052006 | 24 | 150 | 1.6 | 9.7 | 0.00 | 0.00 | 0.00 | 69 | 1005.6 |
| 20260906051505 | 24 | 141 | 3.2 | 9.7 | 0.00 | 0.00 | 0.00 | 69 | 1005.6 |
| 20260906051006 | 24 | 184 | 1.6 | 6.4 | 0.00 | 0.00 | 0.00 | 69 | 1005.6 |
| 20260906050527 | 25 | 184 | 0.0 | 6.4 | 0.00 | 0.00 | 0.00 | 68 | 1005.6 |
| 20260906050005 | 25 | 184 | 0.0 | 6.4 | 0.00 | 0.00 | 0.00 | 67 | 1005.6 |
| 20260906045506 | 25 | 184 | 0.0 | 4.8 | 0.00 | 0.00 | 0.00 | 67 | 1005.6 |
| 20260906045005 | 25 | 184 | 0.0 | 8.0 | 0.00 | 0.00 | 0.00 | 66 | 1005.6 |
| 20260906044506 | 25 | 207 | 3.2 | 8.0 | 0.00 | 0.00 | 0.00 | 65 | 1005.6 |
| 20260906044026 | 25 | 142 | 0.0 | 11.3 | 0.00 | 0.00 | 0.00 | 65 | 1005.6 |
| 20260906043505 | 26 | 137 | 6.4 | 11.3 | 0.00 | 0.00 | 0.00 | 64 | 1005.6 |
| 20260906043006 | 26 | 144 | 6.4 | 11.3 | 0.00 | 0.00 | 0.00 | 64 | 1005.6 |
| 20260906042526 | 26 | 137 | 4.8 | 11.3 | 0.00 | 0.00 | 0.00 | 63 | 1005.6 |
| 20260906042006 | 26 | 129 | 4.8 | 11.3 | 0.00 | 0.00 | 0.00 | 63 | 1005.6 |
| 20260906041505 | 26 | 147 | 4.8 | 11.3 | 0.00 | 0.00 | 0.00 | 62 | 1005.6 |
| 20260906041006 | 26 | 130 | 3.2 | 12.9 | 0.00 | 0.00 | 0.00 | 62 | 1005.6 |
| 20260906040505 | 26 | 134 | 4.8 | 12.9 | 0.00 | 0.00 | 0.00 | 61 | 1005.6 |
| 20260906040027 | 26 | 154 | 3.2 | 14.5 | 0.00 | 0.00 | 0.00 | 61 | 1005.6 |
| 20260906035505 | 26 | 134 | 6.4 | 14.5 | 0.00 | 0.00 | 0.00 | 62 | 1005.6 |
| 20260906035005 | 26 | 130 | 4.8 | 12.9 | 0.00 | 0.00 | 0.00 | 61 | 1005.6 |
| 20260906034505 | 27 | 147 | 3.2 | 12.9 | 0.00 | 0.00 | 0.00 | 61 | 1005.6 |
| 20260906034005 | 27 | 151 | 3.2 | 11.3 | 0.00 | 0.00 | 0.00 | 61 | 1005.6 |
| 20260906033505 | 27 | 140 | 3.2 | 14.5 | 0.00 | 0.00 | 0.00 | 61 | 1005.6 |
| 20260906033026 | 27 | 157 | 4.8 | 14.5 | 0.00 | 0.00 | 0.00 | 61 | 1005.6 |
| 20260906032506 | 27 | 143 | 3.2 | 14.5 | 0.00 | 0.00 | 0.00 | 62 | 1005.6 |
| 20260906032005 | 27 | 142 | 6.4 | 14.5 | 0.00 | 0.00 | 0.00 | 62 | 1005.6 |
| 20260906031506 | 27 | 156 | 3.2 | 11.3 | 0.00 | 0.00 | 0.00 | 62 | 1005.6 |
| 20260906031005 | 27 | 146 | 4.8 | 12.9 | 0.00 | 0.00 | 0.00 | 62 | 1005.6 |
| 20260906030506 | 27 | 148 | 3.2 | 12.9 | 0.00 | 0.00 | 0.00 | 62 | 1005.6 |
| 20260906030006 | 27 | 149 | 4.8 | 12.9 | 0.00 | 0.00 | 0.00 | 62 | 1005.6 |
| 20260906025505 | 27 | 136 | 4.8 | 12.9 | 0.00 | 0.00 | 0.00 | 63 | 1005.6 |
| 20260906025006 | 27 | 136 | 6.4 | 16.1 | 0.00 | 0.00 | 0.00 | 63 | 1005.6 |
| 20260906024505 | 27 | 136 | 6.4 | 16.1 | 0.00 | 0.00 | 0.00 | 62 | 1005.6 |
| 20260906024006 | 27 | 132 | 8.0 | 16.1 | 0.00 | 0.00 | 0.00 | 62 | 1005.6 |
| 20260906023527 | 27 | 142 | 6.4 | 17.7 | 0.00 | 0.00 | 0.00 | 62 | 1005.6 |
| 20260906023005 | 27 | 131 | 9.7 | 17.7 | 0.00 | 0.00 | 0.00 | 62 | 1005.6 |
| 20260906022527 | 27 | 123 | 6.4 | 17.7 | 0.00 | 0.00 | 0.00 | 61 | 1005.6 |
| 20260906022005 | 27 | 127 | 8.0 | 19.3 | 0.00 | 0.00 | 0.00 | 61 | 1005.6 |
| 20260906021505 | 27 | 129 | 9.7 | 19.3 | 0.00 | 0.00 | 0.00 | 61 | 1005.6 |
| 20260906021027 | 27 | 130 | 9.7 | 17.7 | 0.00 | 0.00 | 0.00 | 60 | 1005.6 |
| 20260906020505 | 27 | 154 | 8.0 | 17.7 | 0.00 | 0.00 | 0.00 | 60 | 1005.6 |
| 20260906020006 | 27 | 130 | 9.7 | 17.7 | 0.00 | 0.00 | 0.00 | 60 | 1005.6 |
| 20260906015505 | 27 | 128 | 8.0 | 17.7 | 0.00 | 0.00 | 0.00 | 59 | 1005.6 |
| 20260906015006 | 28 | 129 | 9.7 | 20.9 | 0.00 | 0.00 | 0.00 | 59 | 1005.6 |
| 20260906014505 | 28 | 128 | 11.3 | 20.9 | 0.00 | 0.00 | 0.00 | 58 | 1005.6 |
| 20260906014006 | 28 | 132 | 9.7 | 19.3 | 0.00 | 0.00 | 0.00 | 58 | 1005.6 |
| 20260906013505 | 28 | 141 | 6.4 | 24.1 | 0.00 | 0.00 | 0.00 | 57 | 1005.6 |
| 20260906013006 | 28 | 128 | 6.4 | 24.1 | 0.00 | 0.00 | 0.00 | 57 | 1005.6 |
| 20260906012505 | 28 | 126 | 8.0 | 22.5 | 0.00 | 0.00 | 0.00 | 57 | 1005.6 |
| 20260906012005 | 28 | 135 | 8.0 | 24.1 | 0.00 | 0.00 | 0.00 | 57 | 1005.6 |
| 20260906011505 | 28 | 123 | 8.0 | 24.1 | 0.00 | 0.00 | 0.00 | 57 | 1005.6 |
| 20260906011006 | 28 | 129 | 8.0 | 24.1 | 0.00 | 0.00 | 0.00 | 56 | 1005.6 |
| 20260906010527 | 28 | 132 | 9.7 | 29.0 | 0.00 | 0.00 | 0.00 | 56 | 1005.6 |
| 20260906010005 | 29 | 125 | 9.7 | 29.0 | 0.00 | 0.00 | 0.00 | 55 | 1005.6 |
| 20260906005505 | 29 | 127 | 11.3 | 32.2 | 0.00 | 0.00 | 0.00 | 54 | 1005.6 |
| 20260906005005 | 29 | 132 | 12.9 | 35.4 | 0.00 | 0.00 | 0.00 | 54 | 1005.6 |
| 20260906004505 | 30 | 136 | 9.7 | 35.4 | 0.00 | 0.00 | 0.00 | 53 | 1005.6 |
| 20260906003506 | 30 | 131 | 12.9 | 24.1 | 0.00 | 0.00 | 0.00 | 54 | 1005.6 |
| 20260906003047 | 30 | 117 | 9.7 | 27.4 | 0.00 | 0.00 | 0.00 | 52 | 1005.6 |
| 20260906002505 | 30 | 122 | 14.5 | 35.4 | 0.00 | 0.00 | 0.00 | 51 | 1005.6 |
| 20260906002005 | 31 | 127 | 14.5 | 35.4 | 0.00 | 0.00 | 0.00 | 50 | 1005.6 |
| 20260906001526 | 32 | 99 | 12.9 | 29.0 | 0.00 | 0.00 | 0.00 | 49 | 1005.6 |
| 20260906001006 | 32 | 112 | 11.3 | 22.5 | 0.00 | 0.00 | 0.00 | 49 | 1005.6 |
| 20260906000505 | 33 | 125 | 11.3 | 22.5 | 0.00 | 0.00 | 0.00 | 47 | 1005.6 |
| 20260906000006 | 33 | 117 | 6.4 | 24.1 | 0.00 | 0.00 | 0.00 | 47 | 1005.6 |
| 20260905235505 | 33 | 126 | 9.7 | 24.1 | 0.00 | 0.00 | 0.00 | 46 | 1005.6 |
| 20260905235006 | 33 | 93 | 8.0 | 20.9 | 0.00 | 0.00 | 0.00 | 44 | 1005.6 |
| 20260905234505 | 34 | 100 | 8.0 | 22.5 | 0.00 | 0.00 | 0.00 | 44 | 1005.6 |
| 20260905234027 | 35 | 121 | 11.3 | 22.5 | 0.00 | 0.00 | 0.00 | 42 | 1005.6 |
| 20260905233526 | 35 | 132 | 11.3 | 22.5 | 0.00 | 0.00 | 0.00 | 40 | 1005.6 |
| 20260905233005 | 35 | 166 | 3.2 | 11.3 | 0.00 | 0.00 | 0.00 | 38 | 1005.6 |
| 20260905232506 | 35 | 196 | 3.2 | 8.0 | 0.00 | 0.00 | 0.00 | 38 | 1005.6 |
| 20260905232005 | 35 | 189 | 1.6 | 14.5 | 0.00 | 0.00 | 0.00 | 38 | 1005.6 |
| 20260905231506 | 35 | 191 | 3.2 | 14.5 | 0.00 | 0.00 | 0.00 | 39 | 1005.6 |
| 20260905231005 | 35 | 218 | 3.2 | 12.9 | 0.00 | 0.00 | 0.00 | 38 | 1005.6 |
| 20260905230505 | 36 | 194 | 3.2 | 14.5 | 0.00 | 0.00 | 0.00 | 38 | 1005.6 |
| 20260905230005 | 36 | 178 | 4.8 | 19.3 | 0.00 | 0.00 | 0.00 | 38 | 1005.6 |
| 20260905225505 | 36 | 141 | 8.0 | 19.3 | 0.00 | 0.00 | 0.00 | 39 | 1005.6 |
| 20260905225005 | 35 | 207 | 1.6 | 11.3 | 0.00 | 0.00 | 0.00 | 39 | 1005.6 |
| 20260905224505 | 35 | 177 | 3.2 | 11.3 | 0.00 | 0.00 | 0.00 | 39 | 1005.6 |
| 20260905224005 | 36 | 186 | 3.2 | 11.3 | 0.00 | 0.00 | 0.00 | 40 | 1005.6 |
| 20260905223526 | 36 | 164 | 1.6 | 16.1 | 0.00 | 0.00 | 0.00 | 41 | 1005.6 |
| 20260905223027 | 36 | 154 | 8.0 | 16.1 | 0.00 | 0.00 | 0.00 | 40 | 1005.6 |
| 20260905222506 | 35 | 191 | 3.2 | 9.7 | 0.00 | 0.00 | 0.00 | 40 | 1005.6 |
| 20260905222005 | 36 | 181 | 3.2 | 12.9 | 0.00 | 0.00 | 0.00 | 39 | 1005.6 |
| 20260905221527 | 36 | 159 | 4.8 | 14.5 | 0.00 | 0.00 | 0.00 | 40 | 1005.6 |
| 20260905221005 | 36 | 169 | 4.8 | 14.5 | 0.00 | 0.00 | 0.00 | 40 | 1005.6 |
| 20260905220506 | 36 | 152 | 1.6 | 11.3 | 0.00 | 0.00 | 0.00 | 42 | 1005.6 |
| 20260905220005 | 36 | 172 | 3.2 | 14.5 | 0.00 | 0.00 | 0.00 | 40 | 1005.6 |
| 20260905215527 | 36 | 166 | 4.8 | 14.5 | 0.00 | 0.00 | 0.00 | 40 | 1005.6 |
| 20260905215005 | 36 | 193 | 3.2 | 9.7 | 0.00 | 0.00 | 0.00 | 41 | 1005.6 |
| 20260905214505 | 35 | 194 | 3.2 | 9.7 | 0.00 | 0.00 | 0.00 | 41 | 1005.6 |
| 20260905214005 | 35 | 174 | 3.2 | 16.1 | 0.00 | 0.00 | 0.00 | 42 | 1005.6 |
| 20260905213505 | 35 | 174 | 3.2 | 16.1 | 0.00 | 0.00 | 0.00 | 43 | 1005.6 |
| 20260905213005 | 35 | 184 | 3.2 | 8.0 | 0.00 | 0.00 | 0.00 | 40 | 1005.6 |
| 20260905212526 | 35 | 176 | 3.2 | 11.3 | 0.00 | 0.00 | 0.00 | 42 | 1005.6 |
| 20260905212006 | 35 | 191 | 4.8 | 11.3 | 0.00 | 0.00 | 0.00 | 42 | 1005.6 |
| 20260905211505 | 35 | 162 | 4.8 | 11.3 | 0.00 | 0.00 | 0.00 | 41 | 1005.6 |
| 20260905211005 | 35 | 197 | 1.6 | 19.3 | 0.00 | 0.00 | 0.00 | 44 | 1005.6 |
| 20260905210526 | 35 | 166 | 4.8 | 19.3 | 0.00 | 0.00 | 0.00 | 43 | 1005.6 |
| 20260905210026 | 35 | 143 | 3.2 | 14.5 | 0.00 | 0.00 | 0.00 | 44 | 1005.6 |
| 20260905205506 | 35 | 183 | 3.2 | 24.1 | 0.00 | 0.00 | 0.00 | 42 | 1005.6 |
| 20260905205005 | 35 | 149 | 6.4 | 25.7 | 0.00 | 0.00 | 0.00 | 43 | 1005.6 |
| 20260905204506 | 35 | 158 | 8.0 | 25.7 | 0.00 | 0.00 | 0.00 | 43 | 1005.6 |
| 20260905204005 | 35 | 158 | 4.8 | 17.7 | 0.00 | 0.00 | 0.00 | 46 | 1005.6 |